[[{"header":{"parameterUnit":"m.s-1","parameterCategory":2,"la1":30.2991,"la2":30.254,"lo1":-89.0895,"lo2":-89.0444,"dy":0.0017,"dx":0.0017,"nx":28,"ny":28,"refTime":"2023-09-17T21:00:00:Z","depth":"0","parameterNumber":2,"parameterNumberName":"U-component_of_CURRENTS"},"data":[0,0,0,0,0,0,0,0,0,0,0,0,0,0,0,0,0,0,0,0,0,0,0,0,0,0,0,0,0,0,0,0,0,0,0,0,0,0,0,0,0,0,0,0,0,0,0,0,0,0,0,0,0,0,0,0,0,0,0.1881,0.1881,0,0.1881,0.1881,0.1881,0.1863,0.1863,0.1863,0.1863,0.185,0.185,0.185,0,0,0,0,0,0,0,0,0,0,0,0,0,0.1875,0.1875,0.1881,0.1881,0.1882,0.1881,0.1881,0.1881,0.1863,0.1863,0.1863,0.1862,0.185,0.185,0.185,0,0,0,0,0,0,0,0,0,0,0,0,0,0.1874,0.1875,0.1881,0.1874,0.1874,0.1881,0.1881,0.1881,0.1864,0.1863,0.1863,0.1862,0.185,0.185,0.185,0.1857,0,0,0.1849,0.1849,0,0,0,0,0,0,0,0,0.1874,0.1874,0.1875,0.1875,0.1874,0.1874,0.1874,0.1873,0.1864,0.1865,0.1863,0.1862,0.1858,0.1857,0.1856,0.1856,0.1856,0.1849,0.1849,0.1849,0.1849,0,0,0,0,0,0,0,0.1874,0.1874,0.1879,0.1876,0.1875,0.1874,0.1873,0.1874,0.1862,0.1865,0.1864,0.1868,0.1858,0.1856,0.1855,0.1856,0.1849,0.1849,0.1849,0.1849,0.1884,0.1885,0,0,0,0,0,0,0.1878,0.1874,0.1879,0.1879,0.1876,0.1875,0.1874,0.1873,0.1863,0.1861,0.1868,0.1867,0.1856,0.1855,0.1855,0.1878,0.1849,0.1849,0.1849,0.1883,0.1885,0.1886,0,0,0,0,0,0,0.1878,0.1879,0.1879,0.1879,0.1879,0.1875,0.1874,0.1873,0.1874,0.1865,0.1863,0.1871,0.1856,0.1855,0.186,0.1877,0.1849,0.1849,0.1882,0.1884,0.1885,0.1915,0,0,0,0,0,0,0.1878,0.1878,0.1881,0.1879,0.1879,0.1891,0.1875,0.1873,0.1877,0.1876,0.1867,0.1865,0.1855,0.1861,0.186,0.1876,0.1849,0.1881,0.1883,0.1885,0.1913,0.1917,0.1921,0,0,0,0,0,0.1878,0.1884,0.1881,0.1882,0.1882,0.1892,0.1892,0.1887,0.1878,0.1884,0.1877,0.1865,0.1873,0.1861,0.1861,0.1877,0.188,0.1882,0.1884,0.1911,0.1916,0.1921,0,0,0,0,0,0,0.1881,0.1883,0.188,0.1885,0.1892,0.189,0.1897,0.1892,0.189,0.1887,0.1874,0.1873,0.1887,0.1879,0.1867,0.1894,0.1877,0.1879,0.1897,0.1902,0.1906,0.1908,0.1849,0,0,0,0,0,0.1884,0.1888,0.1892,0.1897,0.1903,0.19,0.1904,0.1901,0.1899,0.1898,0.1891,0.1888,0.1896,0.1896,0.1899,0.191,0.1917,0.1922,0.1927,0.193,0.1933,0.196,0.1967,0.1893,0.1893,0.1893,0,0,0.1886,0.1889,0.189,0.1899,0.1902,0.191,0.1901,0.191,0.1914,0.1898,0.1901,0.1904,0.1903,0.1918,0.1923,0.1912,0.1958,0.1933,0.1936,0.1936,0.1963,0.197,0.1977,0.1895,0.1894,0.1894,0,0,0.1892,0.1896,0.1902,0.1909,0.192,0.1922,0.1927,0.1928,0.1929,0.1936,0.193,0.1942,0.1943,0.1949,0.1953,0.1984,0.1982,0.1987,0.2006,0.2033,0.2039,0.2044,0.2072,0.208,0.1986,0.1986,0.1986,0,0.1894,0.19,0.1907,0.1915,0.1923,0.1928,0.1937,0.1942,0.1943,0.1951,0.1942,0.1961,0.196,0.1984,0.1995,0.1994,0.2008,0.1984,0.2038,0.2044,0.2049,0.2075,0.2084,0.1988,0.1988,0.1987,0.1987,0,0.1902,0.1909,0.1916,0.1926,0.1938,0.195,0.1959,0.1968,0.1971,0.1976,0.2,0.2003,0.2015,0.2021,0.2015,0.2054,0.2053,0.2042,0.2023,0.2058,0.2084,0.2092,0.199,0.199,0.1989,0.1989,0,0,0.1893,0.1917,0.1917,0.1922,0.1945,0.195,0.1972,0.1993,0.201,0.2016,0.2039,0.2055,0.206,0.2065,0.2066,0.2087,0.2138,0.208,0.2081,0.2104,0.2203,0.2176,0.2182,0.2136,0.2137,0.2138,0.221,0,0.1895,0.1909,0.1925,0.1937,0.1946,0.1965,0.1986,0.2005,0.2029,0.2054,0.2068,0.2093,0.2077,0.2091,0.2109,0.2135,0.2158,0.2119,0.2168,0.217,0.2139,0.219,0.2083,0.2135,0.2217,0.2219,0.2219,0,0.1888,0.1901,0.1915,0.1941,0.1948,0.1958,0.1996,0.2016,0.2062,0.2087,0.2117,0.2131,0.2167,0.2146,0.2203,0.2179,0.2194,0.2207,0.221,0.2178,0.2157,0.2112,0.2146,0.2092,0.2231,0.223,0.223,0,0.186,0.1888,0.1898,0.1906,0.1941,0.1951,0.1972,0.2019,0.2047,0.2111,0.2139,0.2185,0.2208,0.2237,0.226,0.224,0.232,0.2296,0.2285,0.2284,0.2198,0.2186,0.2179,0.2335,0.2335,0.2335,0.2335,0,0.1847,0.185,0.1883,0.1883,0.1899,0.1931,0.1961,0.1998,0.2061,0.2096,0.2147,0.2183,0.2231,0.2272,0.2289,0.2318,0.2346,0.2303,0.2305,0.2206,0.2195,0.2147,0.2123,0.2338,0.2337,0.2336,0.2336,0,0.1806,0.1829,0.1837,0.1873,0.1881,0.1888,0.194,0.197,0.2037,0.2086,0.2107,0.2194,0.2258,0.2301,0.2365,0.2352,0.2317,0.2385,0.2269,0.2256,0.2178,0.2159,0.2087,0.2018,0.2388,0.2388,0.2388,0,0.1786,0.1788,0.1814,0.1819,0.1832,0.1853,0.1875,0.1946,0.1985,0.2083,0.2103,0.2189,0.2238,0.2332,0.2348,0.239,0.231,0.2299,0.2235,0.2172,0.2154,0.2069,0.201,0.2141,0.2139,0.2137,0.2135,0,0.1754,0.1763,0.1775,0.1781,0.1793,0.1809,0.1843,0.1866,0.195,0.1995,0.2071,0.2122,0.2226,0.2229,0.2283,0.2289,0.2176,0.2264,0.2224,0.1986,0.1866,0.1801,0.2103,0.212,0.2121,0.2122,0.2123,0.2124,0.173,0.1726,0.174,0.1737,0.175,0.1747,0.1731,0.178,0.1812,0.1845,0.1969,0.2004,0.208,0.215,0.215,0.2087,0.2084,0.2005,0.2,0.1929,0.1818,0.2092,0.2092,0.2093,0.2094,0.2095,0.2096,0,0.1688,0.169,0.1695,0.1679,0.1659,0.1685,0.1696,0.1666,0.1656,0.173,0.1777,0.1844,0.1852,0.1911,0.1916,0.1837,0.1736,0.1773,0.1623,0.1587,0.1856,0.1799,0.1703,0.1703,0.1703,0.1703,0.1703,0.1703,0.1668,0.1647,0.1641,0.1582,0.157,0.1507,0.1487,0.1462,0.1487,0.1492,0.1524,0.1596,0.1729,0.1758,0.1704,0.1654,0.1513,0.1425,0.144,0.163,0.1651,0.167,0.1611,0.1476,0.1476,0.1075,0.1072,0.107]},{"header":{"parameterUnit":"m.s-1","parameterCategory":2,"la1":30.2991,"la2":30.254,"lo1":-89.0895,"lo2":-89.0444,"dy":0.0017,"dx":0.0017,"nx":28,"ny":28,"refTime":"2023-09-17T21:00:00:Z","depth":"0","parameterNumber":3,"parameterNumberName":"V-component_of_CURRENTS"},"data":[0,0,0,0,0,0,0,0,0,0,0,0,0,0,0,0,0,0,0,0,0,0,0,0,0,0,0,0,0,0,0,0,0,0,0,0,0,0,0,0,0,0,0,0,0,0,0,0,0,0,0,0,0,0,0,0,0,0,0.0015,0.0014,0,-0.0027,-0.0027,-0.0028,-0.006,-0.006,-0.006,-0.006,-0.0129,-0.0131,-0.0133,0,0,0,0,0,0,0,0,0,0,0,0,0,0.0041,0.0041,0.0015,0.0014,0.0014,-0.0027,-0.0027,-0.0028,-0.0059,-0.006,-0.006,-0.006,-0.0129,-0.0131,-0.0133,0,0,0,0,0,0,0,0,0,0,0,0,0,0.0017,0.0041,0.0015,-0.0006,-0.0008,-0.0026,-0.0027,-0.0028,-0.0059,-0.006,-0.006,-0.006,-0.0128,-0.0131,-0.0133,-0.0142,0,0,-0.0141,-0.0142,0,0,0,0,0,0,0,0,0.0019,0.0016,-0.0003,-0.0005,-0.0007,-0.0038,-0.0043,-0.0067,-0.0059,-0.0041,-0.006,-0.0061,-0.01,-0.0105,-0.0113,-0.0145,-0.0148,-0.0141,-0.0142,-0.0143,-0.0144,0,0,0,0,0,0,0,0.002,0.0018,-0.0003,-0.0003,-0.0006,-0.0022,-0.0026,-0.0048,-0.007,-0.0043,-0.0045,-0.0048,-0.0102,-0.0111,-0.0115,-0.0149,-0.0141,-0.0143,-0.0144,-0.0145,-0.0186,-0.0185,0,0,0,0,0,0,0.0029,0.0019,-0.0001,-0.0004,0.0006,-0.0022,-0.0026,-0.0028,-0.0069,-0.0075,-0.0048,-0.0049,-0.0106,-0.0112,-0.0118,-0.0119,-0.0143,-0.0146,-0.0147,-0.0186,-0.0186,-0.0185,0,0,0,0,0,0,0.003,0.0027,0.0,0.0007,0.0003,-0.0022,-0.0024,-0.0029,-0.0037,-0.0072,-0.0079,-0.005,-0.0107,-0.0114,-0.0132,-0.0123,-0.0147,-0.0149,-0.0187,-0.0186,-0.0185,-0.013,0,0,0,0,0,0,0.0031,0.0028,0.003,0.0008,0.0003,-0.0005,-0.0024,-0.0029,-0.0038,-0.004,-0.0077,-0.0084,-0.0108,-0.0128,-0.0134,-0.0127,-0.0151,-0.0187,-0.0186,-0.0186,-0.0132,-0.0127,-0.0123,0,0,0,0,0,0.0032,0.0038,0.003,0.0028,0.0006,-0.0004,-0.0008,-0.0028,-0.0037,-0.0037,-0.006,-0.0082,-0.0128,-0.013,-0.0137,-0.013,-0.0187,-0.0187,-0.0186,-0.0134,-0.0128,-0.0123,0,0,0,0,0,0,0.005,0.0035,0.0026,0.0027,0.0015,-0.0009,-0.001,-0.0024,-0.0042,-0.0044,-0.0079,-0.0087,-0.01,-0.0122,-0.0123,-0.0139,-0.0161,-0.0161,-0.0119,-0.0114,-0.0109,-0.0094,-0.0153,0,0,0,0,0,0.0056,0.0057,0.0038,0.0039,0.0036,0.0013,0.0007,-0.0005,-0.0024,-0.0032,-0.0057,-0.0082,-0.0102,-0.0113,-0.0135,-0.0144,-0.0164,-0.0144,-0.0139,-0.0135,-0.0128,-0.0148,-0.0145,-0.0182,-0.0182,-0.0182,0,0,0.0062,0.0055,0.0055,0.0044,0.0032,0.0034,0.0008,0.0004,0.0006,-0.0037,-0.0043,-0.0069,-0.0101,-0.011,-0.0118,-0.0128,-0.0135,-0.0134,-0.0131,-0.0126,-0.0147,-0.0143,-0.014,-0.0182,-0.0182,-0.0182,0,0,0.0081,0.0071,0.008,0.0073,0.0062,0.0051,0.0053,0.0033,0.0024,0.0014,-0.0014,-0.0031,-0.0065,-0.0081,-0.0095,-0.0079,-0.0112,-0.0088,-0.0053,-0.0072,-0.0069,-0.0067,-0.0086,-0.0085,-0.0085,-0.0085,-0.0084,0,0.009,0.0098,0.0081,0.0088,0.009,0.0063,0.0076,0.0064,0.0041,0.0039,0.0019,-0.002,-0.0049,-0.0055,-0.005,-0.0068,-0.0086,-0.007,-0.0066,-0.0064,-0.0062,-0.0082,-0.0083,-0.0082,-0.0082,-0.0082,-0.0083,0,0.0115,0.0122,0.0127,0.013,0.013,0.0135,0.0121,0.0117,0.0102,0.0088,0.0075,0.0036,0.0015,0.0002,-0.0021,-0.0021,-0.0039,-0.0058,-0.0077,-0.0055,-0.0078,-0.0079,-0.0078,-0.0079,-0.008,-0.008,0,0,0.0137,0.0143,0.0146,0.0159,0.0154,0.016,0.0165,0.0165,0.0177,0.0143,0.0151,0.0112,0.009,0.0074,0.0042,0.0024,0.0016,-0.0008,-0.001,-0.0022,-0.0026,-0.0031,-0.0033,-0.0003,-0.0003,-0.0003,-0.0045,0,0.0162,0.0191,0.0186,0.0217,0.0232,0.0217,0.0225,0.0222,0.0214,0.0213,0.0171,0.0163,0.0118,0.011,0.0086,0.0036,0.0015,0.003,-0.0049,-0.0052,-0.0055,-0.0034,-0.0009,-0.0043,-0.0047,-0.0047,-0.0048,0,0.0192,0.0208,0.0243,0.0266,0.0271,0.0283,0.0304,0.0311,0.0301,0.0293,0.0276,0.0241,0.0211,0.0167,0.0095,0.0107,0.0048,0.0003,-0.0,-0.0023,-0.0058,-0.0067,-0.0046,-0.0135,-0.005,-0.005,-0.005,0,0.0226,0.0252,0.0285,0.0291,0.0308,0.0321,0.033,0.0335,0.0358,0.0349,0.0359,0.031,0.0294,0.0214,0.0122,0.0108,0.0041,0.0007,-0.0055,-0.0056,-0.0059,-0.006,-0.0128,-0.0046,-0.0045,-0.0045,-0.0045,0,0.0259,0.0285,0.0302,0.032,0.036,0.036,0.0405,0.0405,0.0424,0.046,0.0405,0.0421,0.0305,0.025,0.015,0.0053,0.0061,-0.0041,-0.0063,-0.0039,-0.0038,-0.0136,-0.0196,-0.0047,-0.0047,-0.0046,-0.0046,0,0.0291,0.03,0.0342,0.0367,0.0378,0.0409,0.0455,0.0493,0.0498,0.0543,0.0542,0.051,0.0441,0.032,0.02,0.0103,-0.0051,-0.004,-0.0002,-0.0019,-0.0164,-0.0221,-0.0315,-0.0362,-0.0115,-0.0116,-0.0116,0,0.0309,0.0334,0.0379,0.041,0.0422,0.0467,0.0503,0.0527,0.0576,0.0602,0.0631,0.0582,0.0565,0.0391,0.0217,0.0049,-0.0053,-0.0049,-0.0075,-0.016,-0.0241,-0.0278,-0.0314,-0.0061,-0.006,-0.006,-0.006,0,0.0347,0.0363,0.0398,0.0456,0.0501,0.0558,0.061,0.0659,0.0694,0.0734,0.0777,0.0766,0.0608,0.0459,0.023,0.0113,-0.0105,-0.0051,-0.0148,-0.0206,-0.0242,-0.0301,-0.005,-0.0059,-0.0059,-0.0059,-0.0059,-0.0059,0.0379,0.0408,0.0453,0.0508,0.0565,0.0637,0.0686,0.0755,0.0836,0.0887,0.0881,0.0881,0.0663,0.0367,0.0199,-0.0086,-0.0108,-0.0181,-0.0244,-0.0275,-0.0315,-0.0057,-0.0087,-0.0087,-0.0087,-0.0087,-0.0088,0,0.0414,0.0446,0.0501,0.0568,0.0631,0.0654,0.0751,0.0804,0.0898,0.0953,0.0984,0.0892,0.0633,0.0356,-0.0025,-0.0238,-0.0315,-0.0356,-0.0406,-0.0436,-0.021,-0.0202,-0.0244,-0.0244,-0.0244,-0.0244,-0.0244,-0.0244,0.0436,0.0487,0.051,0.0609,0.0658,0.0738,0.0792,0.0875,0.0938,0.1004,0.1014,0.1001,0.0812,0.0146,-0.0316,-0.0427,-0.0576,-0.0605,-0.0702,-0.0549,-0.0538,-0.0526,-0.0532,-0.0643,-0.0644,-0.0882,-0.0885,-0.0887]}],[{"header":{"parameterUnit":"m.s-1","parameterCategory":2,"la1":30.2991,"la2":30.254,"lo1":-89.0895,"lo2":-89.0444,"dy":0.0017,"dx":0.0017,"nx":28,"ny":28,"refTime":"2023-09-17T21:00:00:Z","depth":"2","parameterNumber":2,"parameterNumberName":"U-component_of_CURRENTS"},"data":[0,0,0,0,0,0,0,0,0,0,0,0,0,0,0,0,0,0,0,0,0,0,0,0,0,0,0,0,0,0,0,0,0,0,0,0,0,0,0,0,0,0,0,0,0,0,0,0,0,0,0,0,0,0,0,0,0,0,0.1819,0.182,0,0.1827,0.1827,0.1827,0.1824,0.1824,0.1824,0.1824,0.1832,0.1832,0.1832,0,0,0,0,0,0,0,0,0,0,0,0,0,0.1807,0.1807,0.1819,0.182,0.182,0.1827,0.1827,0.1827,0.1824,0.1824,0.1824,0.1824,0.1832,0.1832,0.1832,0,0,0,0,0,0,0,0,0,0,0,0,0,0.1812,0.1807,0.1819,0.182,0.182,0.1827,0.1827,0.1827,0.1824,0.1824,0.1824,0.1824,0.1832,0.1832,0.1832,0.1837,0,0,0.1834,0.1834,0,0,0,0,0,0,0,0,0.1812,0.1812,0.182,0.182,0.182,0.1826,0.1826,0.1831,0.1824,0.1821,0.1824,0.1824,0.1831,0.1831,0.1831,0.1837,0.1837,0.1834,0.1834,0.1834,0.1834,0,0,0,0,0,0,0,0.1812,0.1812,0.1821,0.182,0.182,0.1822,0.1823,0.1827,0.1825,0.1822,0.1822,0.1825,0.1831,0.1831,0.1831,0.1838,0.1834,0.1834,0.1834,0.1834,0.1882,0.1883,0,0,0,0,0,0,0.1813,0.1812,0.1821,0.1822,0.1817,0.1823,0.1823,0.1823,0.1825,0.1826,0.1825,0.1825,0.183,0.1831,0.1831,0.1866,0.1834,0.1834,0.1835,0.1881,0.1883,0.1884,0,0,0,0,0,0,0.1813,0.1814,0.1821,0.1818,0.1819,0.1823,0.1823,0.1823,0.1831,0.1828,0.1828,0.1834,0.183,0.1831,0.1845,0.1865,0.1835,0.1835,0.188,0.1882,0.1883,0.1917,0,0,0,0,0,0,0.1812,0.1813,0.1818,0.1818,0.182,0.1834,0.1823,0.1824,0.1834,0.1834,0.1836,0.1836,0.183,0.1845,0.1846,0.1865,0.1835,0.1879,0.1881,0.1883,0.1915,0.192,0.1924,0,0,0,0,0,0.1812,0.1819,0.1818,0.182,0.1824,0.1835,0.1836,0.1837,0.1834,0.1843,0.1844,0.1836,0.1858,0.1846,0.1847,0.1867,0.1878,0.188,0.1883,0.1913,0.1919,0.1924,0,0,0,0,0,0,0.1815,0.1819,0.1819,0.1826,0.1835,0.1835,0.1845,0.1844,0.1851,0.1853,0.1846,0.1847,0.187,0.1864,0.1851,0.1888,0.1868,0.1871,0.1891,0.1896,0.1901,0.19,0.1836,0,0,0,0,0,0.1819,0.1825,0.183,0.1837,0.1843,0.1846,0.1851,0.1852,0.1857,0.186,0.1861,0.1866,0.1879,0.1884,0.1892,0.1908,0.1911,0.1923,0.1928,0.1932,0.1933,0.1956,0.1962,0.1891,0.1891,0.1891,0,0,0.1822,0.1826,0.1829,0.1839,0.1845,0.1855,0.1849,0.1862,0.1871,0.186,0.1876,0.1884,0.1888,0.1909,0.1919,0.1907,0.1956,0.1935,0.1938,0.1937,0.1959,0.1965,0.1972,0.1893,0.1893,0.1892,0,0,0.1829,0.1836,0.1843,0.1852,0.1865,0.1869,0.1876,0.1883,0.189,0.1906,0.1905,0.1923,0.1935,0.1944,0.195,0.1985,0.1982,0.1992,0.2011,0.2033,0.2039,0.2044,0.2064,0.2071,0.1991,0.1991,0.1991,0,0.1833,0.184,0.1848,0.1858,0.1868,0.1877,0.1888,0.1898,0.1909,0.192,0.1916,0.1948,0.1952,0.1981,0.1995,0.1995,0.2006,0.1988,0.2039,0.2044,0.2049,0.2068,0.2075,0.1993,0.1993,0.1992,0.1992,0,0.1841,0.1851,0.1859,0.1873,0.1886,0.19,0.1915,0.193,0.194,0.1949,0.1983,0.1991,0.201,0.2019,0.2017,0.2056,0.2054,0.2044,0.2023,0.2058,0.2076,0.2083,0.1996,0.1995,0.1994,0.1994,0,0,0.1833,0.186,0.1861,0.187,0.1897,0.1904,0.1931,0.1956,0.1977,0.1993,0.2021,0.2046,0.2055,0.2063,0.2068,0.2086,0.2133,0.2082,0.2082,0.2098,0.2187,0.2143,0.2145,0.2134,0.2135,0.2136,0.2189,0,0.1836,0.1854,0.187,0.1889,0.19,0.1923,0.1948,0.1972,0.2,0.2031,0.205,0.2083,0.2071,0.2091,0.2107,0.2132,0.2151,0.2119,0.2153,0.2154,0.2108,0.2152,0.1972,0.2,0.2195,0.2196,0.2197,0,0.1831,0.1846,0.1865,0.1897,0.1905,0.1921,0.1964,0.1989,0.2038,0.2066,0.21,0.2118,0.2156,0.214,0.2189,0.2172,0.2182,0.2193,0.2195,0.2144,0.2122,0.1996,0.2004,0.2208,0.2207,0.2206,0.2205,0,0.1806,0.1838,0.1854,0.1863,0.1903,0.192,0.1946,0.1996,0.2026,0.2093,0.2122,0.2168,0.2195,0.2219,0.2237,0.2223,0.2286,0.2267,0.2235,0.2232,0.2079,0.2061,0.2298,0.2298,0.2298,0.2297,0.2297,0,0.1794,0.1804,0.1843,0.1848,0.1871,0.1908,0.1945,0.1984,0.2047,0.2081,0.2136,0.2167,0.2217,0.2251,0.2261,0.2271,0.2306,0.2248,0.2246,0.2087,0.207,0.2244,0.2237,0.2299,0.2299,0.2299,0.2298,0,0.1758,0.1784,0.18,0.1843,0.1856,0.1872,0.1933,0.1964,0.2032,0.2079,0.2102,0.2182,0.2231,0.2269,0.2319,0.2297,0.2316,0.2307,0.2119,0.2093,0.2242,0.2236,0.2282,0.2281,0.2281,0.228,0.2279,0,0.174,0.1746,0.1784,0.1794,0.1813,0.1846,0.1871,0.1946,0.198,0.2073,0.2088,0.2165,0.2196,0.2262,0.2255,0.2274,0.2308,0.2105,0.204,0.2248,0.2242,0.2238,0.2233,0.1856,0.1852,0.1848,0.1846,0,0.1711,0.1725,0.174,0.1758,0.1779,0.1801,0.1842,0.1862,0.1944,0.1979,0.2035,0.2074,0.2144,0.2083,0.2112,0.2095,0.209,0.2039,0.2308,0.1889,0.185,0.1843,0.1852,0.1816,0.1819,0.1821,0.1823,0.1824,0.1688,0.169,0.1709,0.1715,0.1737,0.174,0.173,0.177,0.1793,0.1813,0.1913,0.1903,0.1937,0.1893,0.1846,0.1814,0.1959,0.1857,0.1865,0.1877,0.182,0.1782,0.1724,0.1726,0.1728,0.173,0.1732,0,0.1647,0.1656,0.1666,0.1662,0.1646,0.1684,0.1694,0.166,0.1635,0.1676,0.1698,0.1577,0.1537,0.1575,0.1486,0.1499,0.1468,0.1429,0.1362,0.1394,0.1421,0.1338,0.1116,0.1114,0.1112,0.111,0,0,0.1629,0.1612,0.1608,0.1562,0.1563,0.1514,0.1498,0.1456,0.1454,0.14,0.1371,0.1465,0.1531,0.1294,0.1274,0.1176,0.1272,0.1132,0.163,0.1583,0.1607,0.1678,0.1587,0,0,0,0,0]},{"header":{"parameterUnit":"m.s-1","parameterCategory":2,"la1":30.2991,"la2":30.254,"lo1":-89.0895,"lo2":-89.0444,"dy":0.0017,"dx":0.0017,"nx":28,"ny":28,"refTime":"2023-09-17T21:00:00:Z","depth":"2","parameterNumber":3,"parameterNumberName":"V-component_of_CURRENTS"},"data":[0,0,0,0,0,0,0,0,0,0,0,0,0,0,0,0,0,0,0,0,0,0,0,0,0,0,0,0,0,0,0,0,0,0,0,0,0,0,0,0,0,0,0,0,0,0,0,0,0,0,0,0,0,0,0,0,0,0,0.0077,0.0076,0,0.004,0.0039,0.0039,0.001,0.001,0.001,0.001,-0.0053,-0.0055,-0.0056,0,0,0,0,0,0,0,0,0,0,0,0,0,0.0095,0.0095,0.0077,0.0076,0.0076,0.004,0.0039,0.0039,0.001,0.001,0.001,0.001,-0.0053,-0.0055,-0.0056,0,0,0,0,0,0,0,0,0,0,0,0,0,0.0075,0.0095,0.0077,0.0058,0.0056,0.004,0.0039,0.0039,0.001,0.001,0.001,0.0009,-0.0052,-0.0055,-0.0057,-0.0064,0,0,-0.0064,-0.0064,0,0,0,0,0,0,0,0,0.0077,0.0075,0.0061,0.0059,0.0057,0.003,0.0023,0.0003,0.001,0.0027,0.001,0.0009,-0.0027,-0.0032,-0.0038,-0.0067,-0.007,-0.0064,-0.0065,-0.0066,-0.0067,0,0,0,0,0,0,0,0.0078,0.0076,0.0061,0.0061,0.0058,0.0042,0.0039,0.0019,0.0001,0.0025,0.0023,0.0021,-0.0029,-0.0036,-0.004,-0.0071,-0.0064,-0.0066,-0.0067,-0.0068,-0.0108,-0.0108,0,0,0,0,0,0,0.0086,0.0077,0.0062,0.006,0.0067,0.0042,0.0039,0.0038,0.0002,-0.0004,0.0021,0.0019,-0.0032,-0.0038,-0.0043,-0.0047,-0.0066,-0.0068,-0.0069,-0.0108,-0.0108,-0.0108,0,0,0,0,0,0,0.0086,0.0085,0.0064,0.0068,0.0065,0.0043,0.0042,0.0038,0.003,-0.0001,-0.0008,0.0017,-0.0033,-0.0039,-0.0057,-0.005,-0.0069,-0.0071,-0.0108,-0.0108,-0.0108,-0.0061,0,0,0,0,0,0,0.0087,0.0085,0.0087,0.0069,0.0065,0.0059,0.0042,0.0037,0.0029,0.0026,-0.0007,-0.0013,-0.0033,-0.0053,-0.0059,-0.0054,-0.0073,-0.0109,-0.0108,-0.0108,-0.0063,-0.0059,-0.0056,0,0,0,0,0,0.0088,0.0094,0.0087,0.0085,0.0068,0.0059,0.0055,0.0038,0.0029,0.0028,0.0007,-0.0012,-0.0054,-0.0055,-0.0062,-0.0057,-0.0109,-0.0108,-0.0108,-0.0065,-0.006,-0.0056,0,0,0,0,0,0,0.0102,0.0091,0.0083,0.0086,0.0074,0.0054,0.0053,0.0041,0.0023,0.0021,-0.0009,-0.0017,-0.003,-0.005,-0.0049,-0.0067,-0.0084,-0.0085,-0.0049,-0.0045,-0.0042,-0.0028,-0.0075,0,0,0,0,0,0.0107,0.0109,0.0094,0.0096,0.0092,0.0073,0.0066,0.0056,0.0039,0.0031,0.0008,-0.0015,-0.0032,-0.0043,-0.0063,-0.0073,-0.0092,-0.0074,-0.0071,-0.0067,-0.0061,-0.0082,-0.0079,-0.0106,-0.0106,-0.0106,0,0,0.0112,0.0107,0.0107,0.0099,0.0089,0.0091,0.0068,0.0063,0.0064,0.0027,0.002,-0.0004,-0.0033,-0.0042,-0.005,-0.0058,-0.0071,-0.0067,-0.0064,-0.0059,-0.0081,-0.0078,-0.0076,-0.0105,-0.0105,-0.0105,0,0,0.0129,0.0121,0.0129,0.0123,0.0114,0.0105,0.0105,0.0088,0.0078,0.0068,0.0043,0.0026,-0.0005,-0.002,-0.0033,-0.0022,-0.0052,-0.003,-0.0,-0.0021,-0.0019,-0.0017,-0.0039,-0.004,-0.0027,-0.0027,-0.0027,0,0.0135,0.0144,0.013,0.0137,0.0138,0.0114,0.0126,0.0114,0.0092,0.009,0.0072,0.0034,0.0008,-0.0,0.0003,-0.0013,-0.0031,-0.0013,-0.0015,-0.0014,-0.0013,-0.0037,-0.0038,-0.0025,-0.0025,-0.0025,-0.0026,0,0.0157,0.0164,0.017,0.0173,0.0173,0.0177,0.0164,0.0159,0.0144,0.0132,0.0117,0.008,0.006,0.0046,0.0027,0.0023,0.0007,-0.0009,-0.0024,-0.0008,-0.0034,-0.0036,-0.0022,-0.0022,-0.0023,-0.0024,0,0,0.0176,0.0184,0.0187,0.0198,0.0194,0.0199,0.0202,0.0201,0.021,0.0178,0.0182,0.0145,0.0124,0.0109,0.0079,0.006,0.0046,0.0033,0.0031,0.0015,0.0,-0.0004,-0.0008,0.0031,0.0031,0.0031,-0.002,0,0.0198,0.0225,0.0222,0.0249,0.0263,0.0249,0.0255,0.0251,0.0242,0.0238,0.0197,0.0188,0.0148,0.0141,0.0114,0.0067,0.0043,0.0062,-0.0017,-0.0019,-0.0022,-0.001,0.0013,-0.0029,-0.0023,-0.0023,-0.0024,0,0.0224,0.024,0.0271,0.0292,0.0297,0.0307,0.0324,0.0329,0.0317,0.0309,0.0291,0.0258,0.0227,0.0187,0.0114,0.0128,0.0071,0.0027,0.0024,0.0003,-0.0028,-0.0045,-0.0034,-0.0028,-0.0028,-0.0027,-0.0027,0,0.0253,0.0277,0.0307,0.0313,0.0329,0.034,0.0349,0.0351,0.037,0.0359,0.0367,0.0318,0.0299,0.0223,0.0134,0.0124,0.0049,0.0022,-0.004,-0.0042,-0.0045,-0.0046,-0.0034,-0.0034,-0.0034,-0.0033,-0.0033,0,0.0281,0.0305,0.0323,0.0338,0.0374,0.0374,0.0415,0.0413,0.0429,0.0459,0.0409,0.0418,0.0308,0.0251,0.0157,0.0059,0.0065,-0.003,-0.0052,-0.0029,-0.0028,-0.0045,-0.0046,-0.0035,-0.0035,-0.0034,-0.0034,0,0.0307,0.0317,0.0355,0.0379,0.039,0.0418,0.0461,0.0494,0.0498,0.0535,0.0535,0.0497,0.0424,0.031,0.0189,0.01,-0.0001,-0.0041,-0.0006,-0.0023,-0.0088,-0.0086,-0.0117,-0.0117,-0.0118,-0.0118,-0.0119,0,0.0321,0.0344,0.0387,0.0415,0.0428,0.0469,0.0502,0.0525,0.0568,0.0587,0.0609,0.0556,0.0527,0.0353,0.0191,0.003,0.0002,-0.0061,-0.0078,-0.0077,-0.0095,-0.0092,-0.0089,-0.007,-0.007,-0.007,-0.007,0,0.0352,0.0367,0.0399,0.0454,0.0496,0.055,0.0598,0.0641,0.0671,0.0702,0.0728,0.0707,0.0549,0.0397,0.0183,0.0078,-0.0033,-0.0064,-0.0068,-0.0048,-0.0035,-0.0052,-0.0051,-0.0069,-0.0069,-0.0069,-0.0069,-0.0069,0.0376,0.0402,0.0445,0.0497,0.0551,0.0618,0.0662,0.0721,0.0788,0.0822,0.0807,0.0772,0.0605,0.0335,0.0157,-0.0029,-0.0026,-0.0099,-0.0099,-0.0098,-0.0079,-0.0067,-0.0104,-0.0104,-0.0104,-0.0104,-0.0105,0,0.0403,0.0433,0.0484,0.0548,0.0607,0.0634,0.0719,0.0762,0.0835,0.0863,0.0874,0.0714,0.0556,0.0362,0.0088,-0.0075,-0.0083,-0.0125,-0.0104,-0.0103,-0.0102,-0.0083,-0.0109,-0.011,-0.011,-0.0111,0,0,0.042,0.0466,0.0488,0.0579,0.0629,0.0707,0.0756,0.0817,0.0855,0.0875,0.0855,0.082,0.0603,0.0399,0.0187,0.0033,0.0002,0.0008,0.0032,0.0083,0.0085,-0.0065,-0.0031,0,0,0,0,0]}],[{"header":{"parameterUnit":"m.s-1","parameterCategory":2,"la1":30.2991,"la2":30.254,"lo1":-89.0895,"lo2":-89.0444,"dy":0.0017,"dx":0.0017,"nx":28,"ny":28,"refTime":"2023-09-17T21:00:00:Z","depth":"4","parameterNumber":2,"parameterNumberName":"U-component_of_CURRENTS"},"data":[0,0,0,0,0,0,0,0,0,0,0,0,0,0,0,0,0,0,0,0,0,0,0,0,0,0,0,0,0,0,0,0,0,0,0,0,0,0,0,0,0,0,0,0,0,0,0,0,0,0,0,0,0,0,0,0,0,0,0.1111,0.1111,0,0.1143,0.1143,0.1143,0.1177,0.1178,0.1178,0.1179,0.1216,0.1216,0.1217,0,0,0,0,0,0,0,0,0,0,0,0,0,0.108,0.108,0.1111,0.1112,0.1112,0.1143,0.1143,0.1143,0.1177,0.1178,0.1178,0.1179,0.1216,0.1216,0.1217,0,0,0,0,0,0,0,0,0,0,0,0,0,0.11,0.1081,0.1111,0.1133,0.1136,0.1142,0.1143,0.1143,0.1177,0.1178,0.1178,0.1179,0.1216,0.1216,0.1217,0.1203,0,0,0.1219,0.1219,0,0,0,0,0,0,0,0,0.1098,0.1101,0.113,0.1132,0.1135,0.1158,0.1146,0.1164,0.1176,0.116,0.1179,0.118,0.1197,0.1199,0.1202,0.1205,0.1206,0.1219,0.1219,0.122,0.122,0,0,0,0,0,0,0,0.1097,0.1099,0.1122,0.113,0.1133,0.1142,0.1146,0.1149,0.1172,0.1161,0.1164,0.1169,0.1199,0.1201,0.1203,0.1207,0.1219,0.122,0.122,0.122,0.1283,0.1284,0,0,0,0,0,0,0.1095,0.1098,0.1121,0.1123,0.112,0.1142,0.1146,0.1148,0.1172,0.1177,0.1169,0.1171,0.1199,0.1202,0.1204,0.126,0.122,0.122,0.1221,0.1281,0.1283,0.1284,0,0,0,0,0,0,0.1094,0.1096,0.112,0.1113,0.1117,0.1142,0.1144,0.1149,0.1178,0.1178,0.1183,0.1196,0.12,0.1203,0.1232,0.1259,0.1221,0.1221,0.128,0.1282,0.1284,0.1326,0,0,0,0,0,0,0.1093,0.1096,0.1109,0.1112,0.1117,0.1142,0.1144,0.1149,0.1178,0.1183,0.1203,0.1206,0.1201,0.1231,0.1233,0.1259,0.1222,0.1278,0.1281,0.1283,0.1323,0.1329,0.1334,0,0,0,0,0,0.1091,0.11,0.1109,0.1113,0.113,0.1143,0.1146,0.1166,0.1179,0.1195,0.1212,0.1206,0.1248,0.1233,0.1234,0.1261,0.1277,0.128,0.1283,0.132,0.1328,0.1334,0,0,0,0,0,0,0.1095,0.1105,0.1114,0.1127,0.1144,0.1149,0.1169,0.118,0.1205,0.1218,0.1218,0.1222,0.1259,0.1254,0.1238,0.1287,0.1263,0.1267,0.1291,0.1298,0.1304,0.1304,0.1222,0,0,0,0,0,0.11,0.1112,0.1123,0.1137,0.1147,0.1163,0.1176,0.119,0.1206,0.122,0.1233,0.125,0.1266,0.1279,0.129,0.1312,0.1311,0.1333,0.1339,0.1343,0.1346,0.1366,0.1373,0.1294,0.1294,0.1293,0,0,0.1106,0.1114,0.1122,0.114,0.1155,0.1169,0.1174,0.1202,0.1221,0.1218,0.1258,0.1272,0.1278,0.1308,0.1324,0.131,0.1367,0.1347,0.1351,0.1351,0.137,0.1377,0.1384,0.1295,0.1295,0.1295,0,0,0.1114,0.1132,0.1143,0.1158,0.1185,0.1193,0.1207,0.123,0.1252,0.1284,0.1292,0.1322,0.1345,0.1355,0.1361,0.1404,0.1398,0.1415,0.1442,0.1462,0.1468,0.1474,0.1487,0.1493,0.1416,0.1416,0.1416,0,0.1125,0.1135,0.115,0.1164,0.1182,0.1207,0.1225,0.1245,0.1277,0.1297,0.1306,0.1357,0.1365,0.1397,0.1417,0.1417,0.1426,0.1414,0.1469,0.1474,0.1479,0.1491,0.1498,0.1418,0.1418,0.1418,0.1418,0,0.113,0.1151,0.1162,0.1186,0.1207,0.123,0.1256,0.1287,0.1319,0.1338,0.1391,0.1407,0.1438,0.1449,0.1447,0.1492,0.1486,0.1474,0.1449,0.149,0.15,0.1506,0.1422,0.1421,0.142,0.142,0,0,0.1121,0.1159,0.1166,0.1184,0.1225,0.1238,0.1279,0.1317,0.1352,0.1391,0.1435,0.147,0.1491,0.15,0.1509,0.1527,0.1575,0.1523,0.1522,0.1531,0.1621,0.1521,0.1517,0.1576,0.1577,0.1578,0.1615,0,0.1126,0.1152,0.1174,0.121,0.1226,0.1266,0.13,0.1341,0.1384,0.1433,0.1465,0.1512,0.1507,0.1538,0.1556,0.1574,0.1593,0.1566,0.1584,0.1585,0.1486,0.1521,0.1582,0.162,0.1621,0.1622,0.1623,0,0.112,0.1141,0.1175,0.1224,0.1238,0.1267,0.1333,0.1368,0.1435,0.1474,0.1525,0.1555,0.1603,0.1591,0.1636,0.1622,0.1629,0.1634,0.1635,0.1528,0.1494,0.157,0.1633,0.1633,0.1632,0.1631,0.163,0,0.1093,0.1141,0.117,0.1187,0.1244,0.1279,0.1319,0.1385,0.1423,0.151,0.1549,0.1605,0.1645,0.1665,0.168,0.1671,0.1717,0.17,0.1612,0.1605,0.1666,0.1659,0.1727,0.1727,0.1727,0.1727,0.1727,0,0.1075,0.1101,0.1165,0.1179,0.1225,0.1274,0.1333,0.1383,0.146,0.15,0.1573,0.1607,0.1667,0.1698,0.1702,0.1672,0.1735,0.1621,0.1608,0.1684,0.1679,0.167,0.1663,0.1728,0.1728,0.1728,0.1728,0,0.1033,0.1076,0.1113,0.1184,0.1211,0.1246,0.1332,0.1369,0.1453,0.151,0.1543,0.1626,0.1664,0.1701,0.1739,0.1687,0.1679,0.1653,0.1738,0.1729,0.155,0.1545,0.1557,0.1554,0.1551,0.1549,0.1547,0,0.1011,0.1027,0.1106,0.1131,0.1169,0.123,0.1268,0.1358,0.1394,0.15,0.1515,0.1592,0.1633,0.1602,0.1652,0.1653,0.1631,0.1616,0.1574,0.1546,0.1534,0.1533,0.1531,0.1543,0.1542,0.1541,0.154,0,0.0968,0.1008,0.1038,0.1089,0.1135,0.1175,0.1237,0.1252,0.1347,0.1435,0.1455,0.1476,0.1512,0.1536,0.155,0.1546,0.162,0.1587,0.1592,0.1552,0.1529,0.1519,0.1521,0.1531,0.1532,0.1533,0.1534,0,0.0941,0.095,0.0996,0.1031,0.1084,0.1098,0.114,0.1176,0.1218,0.1332,0.1336,0.1414,0.1495,0.148,0.1492,0.1483,0.1458,0.1404,0.1418,0.1429,0.1369,0.1319,0.1249,0,0,0,0,0,0.0905,0.0903,0.0932,0.0959,0.1007,0.1038,0.1106,0.1149,0.1238,0.122,0.1273,0.1302,0.1321,0.1364,0.1329,0.1435,0.1464,0.1387,0.1409,0.1478,0.1489,0.1429,0,0,0,0,0,0,0.0877,0.09,0.0904,0.089,0.0899,0.0938,0.0979,0.1041,0.1035,0.1132,0.1151,0.1226,0.1267,0.1329,0.1306,0.1318,0.1305,0.1442,0.1438,0.1472,0.1482,0.1491,0.1433,0,0,0,0,0]},{"header":{"parameterUnit":"m.s-1","parameterCategory":2,"la1":30.2991,"la2":30.254,"lo1":-89.0895,"lo2":-89.0444,"dy":0.0017,"dx":0.0017,"nx":28,"ny":28,"refTime":"2023-09-17T21:00:00:Z","depth":"4","parameterNumber":3,"parameterNumberName":"V-component_of_CURRENTS"},"data":[0,0,0,0,0,0,0,0,0,0,0,0,0,0,0,0,0,0,0,0,0,0,0,0,0,0,0,0,0,0,0,0,0,0,0,0,0,0,0,0,0,0,0,0,0,0,0,0,0,0,0,0,0,0,0,0,0,0,0.0103,0.0103,0,0.0085,0.0084,0.0084,0.0073,0.0073,0.0073,0.0073,0.0042,0.0042,0.0041,0,0,0,0,0,0,0,0,0,0,0,0,0,0.0108,0.0108,0.0103,0.0103,0.0103,0.0085,0.0084,0.0084,0.0073,0.0073,0.0073,0.0073,0.0043,0.0042,0.0041,0,0,0,0,0,0,0,0,0,0,0,0,0,0.0099,0.0108,0.0103,0.0096,0.0095,0.0085,0.0084,0.0084,0.0073,0.0073,0.0073,0.0073,0.0043,0.0042,0.0041,0.0033,0,0,0.0037,0.0036,0,0,0,0,0,0,0,0,0.0099,0.0099,0.0097,0.0096,0.0095,0.0082,0.0075,0.0067,0.0073,0.0081,0.0073,0.0073,0.0055,0.0052,0.0048,0.0032,0.0031,0.0037,0.0036,0.0035,0.0035,0,0,0,0,0,0,0,0.01,0.0099,0.0095,0.0097,0.0096,0.0086,0.0085,0.0073,0.0067,0.008,0.0079,0.0078,0.0054,0.005,0.0048,0.003,0.0037,0.0036,0.0035,0.0034,0.0008,0.0008,0,0,0,0,0,0,0.0104,0.01,0.0096,0.0095,0.0098,0.0086,0.0084,0.0086,0.0068,0.0065,0.0078,0.0078,0.0052,0.0049,0.0047,0.0044,0.0035,0.0034,0.0034,0.0008,0.0008,0.0008,0,0,0,0,0,0,0.0105,0.0104,0.0097,0.0097,0.0096,0.0086,0.0087,0.0085,0.0083,0.0066,0.0064,0.0078,0.0052,0.0048,0.004,0.0043,0.0034,0.0033,0.0008,0.0008,0.0008,0.0035,0,0,0,0,0,0,0.0105,0.0105,0.0107,0.0098,0.0096,0.0094,0.0087,0.0085,0.0082,0.0081,0.0065,0.0062,0.0051,0.0042,0.0039,0.0041,0.0032,0.0008,0.0008,0.0008,0.0034,0.0036,0.0038,0,0,0,0,0,0.0105,0.011,0.0108,0.0107,0.01,0.0094,0.0092,0.0085,0.0082,0.0082,0.0072,0.0063,0.004,0.0041,0.0037,0.0039,0.0008,0.0008,0.0008,0.0033,0.0036,0.0038,0,0,0,0,0,0,0.0112,0.0109,0.0106,0.011,0.0104,0.0093,0.0093,0.0087,0.0079,0.008,0.0063,0.006,0.0053,0.0042,0.0043,0.0031,0.0022,0.0022,0.0042,0.0044,0.0046,0.0054,0.0031,0,0,0,0,0,0.0116,0.012,0.0112,0.0115,0.0113,0.0104,0.0101,0.0096,0.0088,0.0084,0.0073,0.006,0.005,0.0045,0.0034,0.0027,0.0012,0.0025,0.0027,0.0029,0.0032,0.0011,0.0011,0.0009,0.0009,0.0009,0,0,0.0119,0.0118,0.012,0.0117,0.0112,0.0115,0.0102,0.0101,0.0102,0.0082,0.008,0.0067,0.005,0.0044,0.004,0.0035,0.0021,0.0029,0.003,0.0033,0.0011,0.0011,0.0012,0.0009,0.0009,0.0009,0,0,0.013,0.0128,0.0135,0.0132,0.0128,0.0124,0.0125,0.0116,0.0111,0.0106,0.0093,0.0081,0.0066,0.0054,0.0046,0.005,0.0031,0.0047,0.0062,0.0041,0.0041,0.0041,0.0021,0.0019,0.0047,0.0048,0.0048,0,0.0134,0.0143,0.0135,0.014,0.0143,0.013,0.0139,0.0131,0.012,0.0119,0.011,0.0087,0.0071,0.0062,0.0064,0.0054,0.0041,0.0057,0.0044,0.0043,0.0043,0.0022,0.002,0.0049,0.0049,0.0049,0.0048,0,0.0148,0.0156,0.0159,0.0165,0.0165,0.017,0.0162,0.0159,0.0152,0.0146,0.0135,0.011,0.0098,0.0088,0.0078,0.0068,0.0059,0.0049,0.004,0.0045,0.0023,0.002,0.0051,0.005,0.005,0.0049,0,0,0.0158,0.0168,0.017,0.018,0.018,0.0183,0.0186,0.0186,0.0192,0.0171,0.0172,0.0147,0.0134,0.0124,0.0104,0.0084,0.0065,0.0069,0.0067,0.0052,0.0021,0.0018,0.0014,0.0055,0.0054,0.0054,0.0007,0,0.0172,0.0191,0.0192,0.0212,0.0222,0.0215,0.022,0.0218,0.0213,0.0209,0.0178,0.0173,0.0147,0.0143,0.0118,0.0081,0.0058,0.0079,0.0016,0.0014,0.0013,0.0011,0.0053,0.0004,0.0003,0.0003,0.0002,0,0.0187,0.0199,0.0222,0.024,0.0244,0.0253,0.0265,0.0269,0.026,0.0254,0.0239,0.0218,0.0188,0.0164,0.0099,0.0115,0.0072,0.0038,0.0035,0.0022,0.0005,-0.0002,-0.0004,-0.0003,-0.0003,-0.0002,-0.0002,0,0.02,0.0221,0.0243,0.0248,0.0264,0.0274,0.0283,0.0285,0.0298,0.0287,0.0292,0.025,0.0233,0.0173,0.0105,0.0103,0.0031,0.0018,-0.0029,-0.003,-0.0025,-0.0024,-0.0032,-0.0032,-0.0031,-0.0031,-0.0031,0,0.0214,0.0232,0.0253,0.0264,0.0292,0.0296,0.0326,0.0325,0.0336,0.0354,0.032,0.0318,0.0236,0.0186,0.0116,0.0037,0.0038,-0.0026,-0.0042,-0.0013,-0.001,-0.0027,-0.0026,-0.0033,-0.0033,-0.0032,-0.0032,0,0.0223,0.0236,0.0265,0.0289,0.03,0.0321,0.0359,0.0381,0.0386,0.0406,0.0406,0.037,0.0304,0.0217,0.0119,0.0058,-0.0022,-0.0052,-0.0011,-0.0024,-0.0073,-0.007,-0.0109,-0.0109,-0.0109,-0.011,-0.011,0,0.0227,0.0243,0.0284,0.0305,0.0319,0.0353,0.0379,0.0402,0.0428,0.0437,0.0446,0.0398,0.0358,0.0221,0.0125,-0.001,-0.0032,-0.0076,-0.008,-0.0069,-0.0081,-0.0077,-0.0074,-0.0111,-0.0111,-0.0111,-0.0111,0,0.0235,0.0253,0.0276,0.0321,0.0356,0.0398,0.0436,0.0458,0.0483,0.049,0.0479,0.0412,0.0336,0.0226,0.0122,0.0024,-0.0048,-0.008,-0.0081,-0.0085,-0.0072,-0.0083,-0.0079,-0.0112,-0.0112,-0.0112,-0.0112,0,0.0242,0.0259,0.0294,0.0333,0.038,0.0425,0.0446,0.0475,0.0501,0.0508,0.0503,0.0425,0.0381,0.0243,0.0149,0.0052,0.0023,-0.0015,-0.0019,-0.0018,0.002,0.0049,0.0034,0,0,0,0,0,0.0246,0.0265,0.0301,0.0346,0.0396,0.0424,0.0476,0.0496,0.0519,0.0516,0.0511,0.0441,0.0308,0.0256,0.0158,0.0129,-0.0001,0.001,-0.0048,-0.012,-0.0119,-0.009,0,0,0,0,0,0,0.0248,0.0281,0.0297,0.0352,0.0384,0.0441,0.0476,0.0494,0.0493,0.05,0.0435,0.0408,0.0281,0.036,0.0152,0.0125,0.0072,-0.0048,-0.0051,-0.0121,-0.012,-0.0118,-0.0088,0,0,0,0,0]}]]